CW9809 Weather Reports


Display with metric or nautical units.
time (UTC)temp
F
wind
direction
speed
MPH
gust
MPH
rain 1hr
in
rain 24hr
in
rain mn
in
humidity
%
barometer
mb
20260903113028 67 111 0.0 0.0 0.00 0.24 0.23 95 1016.8
20260903111537 67 112 0.0 0.0 0.00 0.24 0.23 95 1016.7
20260903110031 67 103 0.0 0.0 0.00 0.24 0.23 95 1016.4
20260903104533 67 46 0.0 0.0 0.00 0.24 0.23 95 1016.8
20260903103016 67 225 0.0 0.0 0.00 0.24 0.23 95 1016.4
20260903101536 67 209 0.0 0.0 0.00 0.24 0.23 96 1016.3
20260903100028 66 209 0.0 0.0 0.00 0.24 0.23 95 1016.1
20260903094532 66 209 0.0 0.0 0.00 0.24 0.23 95 1015.8
20260903093035 66 209 0.0 0.0 0.00 0.24 0.23 95 1016.0
20260903091518 66 209 0.0 0.0 0.00 0.24 0.23 95 1016.0
20260903090023 66 209 0.0 0.0 0.00 0.24 0.23 95 1016.2
20260903084530 65 209 0.0 0.0 0.00 0.24 0.23 95 1016.3
20260903083036 65 209 0.0 0.0 0.00 0.24 0.23 95 1016.4
20260903081535 65 209 0.0 0.0 0.00 0.24 0.23 95 1016.5
20260903080023 65 209 0.0 0.0 0.00 0.24 0.23 94 1016.6
20260903074527 65 209 0.0 0.0 0.00 0.24 0.23 94 1016.6
20260903073038 65 209 0.0 0.0 0.00 0.24 0.23 94 1016.9
20260903071533 65 209 0.0 0.0 0.01 0.24 0.23 94 1016.8
20260903070015 65 208 0.0 0.0 0.02 0.24 0.23 94 1016.9
20260903064526 64 207 0.0 0.0 0.05 0.24 0.23 93 1017.2
20260903063005 64 208 0.0 0.0 0.15 0.24 0.23 93 1017.0
20260903061511 64 207 0.0 0.0 0.22 0.23 0.22 93 1016.7
20260903060014 64 208 0.0 0.0 0.21 0.22 0.21 92 1017.5
20260903054518 64 208 0.0 0.0 0.18 0.19 0.18 92 1018.6
20260903053028 64 207 0.0 0.0 0.08 0.09 0.08 91 1019.2
20260903051531 64 209 0.0 0.0 0.00 0.01 0.00 91 1019.5
20260903050011 64 209 0.0 0.0 0.00 0.01 0.00 90 1019.4
20260903044516 64 209 0.0 0.0 0.00 0.02 0.00 90 1019.2
20260903043023 64 209 0.0 0.0 0.00 0.02 0.00 90 1019.4
20260903041527 64 209 0.0 0.0 0.00 0.02 0.00 89 1019.4
20260903040034 64 209 0.0 0.0 0.00 0.02 0.00 89 1019.7
20260903034521 64 209 0.0 0.0 0.00 0.02 0.02 89 1019.3
20260903033018 64 209 0.0 0.0 0.00 0.02 0.02 88 1019.4
20260903031524 64 209 0.0 0.0 0.00 0.02 0.02 88 1019.3
20260903030031 64 209 0.0 0.0 0.00 0.02 0.02 88 1019.6
20260903024531 64 209 0.0 0.0 0.00 0.02 0.02 88 1020.0
20260903023010 64 209 0.0 0.0 0.00 0.02 0.02 87 1020.2
20260903021524 64 209 0.0 0.0 0.00 0.02 0.02 86 1020.5
20260903020024 64 209 0.0 0.0 0.00 0.02 0.02 86 1020.9
20260903014529 64 209 0.0 0.0 0.00 0.02 0.02 86 1020.8
20260903013032 64 209 0.0 0.0 0.00 0.02 0.02 85 1020.6
20260903011515 64 209 0.0 0.0 0.00 0.02 0.02 86 1020.6
20260903010028 65 209 0.0 0.0 0.00 0.02 0.02 86 1020.4
20260903004528 65 209 0.0 0.0 0.00 0.02 0.02 86 1020.7
20260903003031 65 209 0.0 0.0 0.00 0.02 0.02 85 1020.6
20260903001535 65 209 0.0 0.0 0.00 0.02 0.02 84 1020.5
20260903000019 65 240 0.0 0.0 0.00 0.02 0.02 85 1020.3
20260902234534 65 240 0.0 0.0 0.00 0.02 0.02 86 1020.4
20260902233030 65 240 0.0 0.0 0.00 0.02 0.02 86 1020.6
20260902231511 65 240 0.0 0.0 0.00 0.02 0.02 85 1020.8
20260902230017 66 240 0.0 0.0 0.00 0.02 0.02 85 1021.1
20260902224514 66 240 0.0 0.0 0.00 0.02 0.02 85 1021.4
20260902223024 66 240 0.0 0.0 0.00 0.03 0.02 84 1021.6
20260902221531 66 240 0.0 0.0 0.00 0.03 0.02 84 1021.7
20260902220010 67 240 0.0 0.0 0.00 0.08 0.02 84 1021.6
20260902214513 66 240 0.0 0.0 0.00 0.56 0.02 84 1021.4
20260902213019 67 240 0.0 0.0 0.00 0.63 0.02 84 1021.3
20260902211531 67 240 0.0 0.0 0.00 0.66 0.02 85 1021.5
20260902210027 67 240 0.0 0.0 0.00 0.72 0.02 84 1021.1
20260902204533 67 240 0.0 0.0 0.00 0.77 0.02 83 1021.0
20260902203016 67 240 0.0 0.0 0.01 0.81 0.02 84 1021.3
20260902201538 67 240 0.0 0.0 0.01 0.81 0.02 85 1021.2
20260902200028 67 240 0.0 0.0 0.01 0.81 0.02 85 1021.2
20260902194529 67 240 0.0 0.0 0.01 0.81 0.02 85 1021.3
20260902193037 67 240 0.0 0.0 0.00 0.80 0.01 83 1021.7
20260902191537 67 240 0.0 0.0 0.00 0.80 0.01 83 1021.8
20260902190035 68 240 0.0 0.0 0.00 0.80 0.01 81 1021.9
20260902184529 69 240 0.0 0.0 0.00 0.80 0.01 78 1021.7
20260902183032 69 240 0.0 0.0 0.00 0.80 0.01 76 1021.6
20260902181531 70 240 0.0 0.0 0.00 0.80 0.01 76 1021.8
20260902180040 71 240 0.0 0.0 0.00 0.80 0.01 75 1021.9
20260902174534 71 352 0.0 0.0 0.00 0.80 0.01 75 1022.0
20260902173031 70 360 0.0 0.0 0.00 0.80 0.01 80 1022.0
20260902171509 69 360 0.0 0.0 0.00 0.80 0.01 79 1022.2
20260902170036 70 348 0.0 0.0 0.00 0.80 0.01 78 1022.0
20260902164526 70 337 0.0 0.0 0.00 0.80 0.01 80 1021.8
20260902163028 69 336 0.0 0.0 0.00 0.80 0.01 81 1021.8
20260902161547 69 329 0.0 0.0 0.00 0.80 0.01 82 1022.0
20260902160010 68 327 0.0 0.0 0.00 0.80 0.01 83 1022.0
20260902154527 67 346 0.0 0.0 0.00 0.80 0.01 85 1022.0
20260902153021 66 68 0.0 0.0 0.00 0.80 0.01 86 1022.3
20260902151530 65 67 0.0 0.0 0.00 0.80 0.01 87 1022.5
20260902150031 65 67 0.0 0.0 0.00 0.80 0.01 88 1022.7
20260902144526 64 67 0.0 0.0 0.00 0.80 0.01 90 1022.7
20260902143019 64 67 0.0 0.0 0.00 0.80 0.01 91 1022.6
20260902141527 64 67 0.0 0.0 0.00 0.81 0.01 93 1022.8
20260902140030 63 67 0.0 0.0 0.00 0.82 0.01 94 1022.5
20260902134538 63 67 0.0 0.0 0.00 0.83 0.01 95 1022.5
20260902133021 62 109 0.0 0.0 0.00 0.84 0.01 95 1022.2
20260902131524 62 74 0.0 0.0 0.00 0.88 0.01 95 1022.0
20260902130026 61 74 0.0 0.0 0.00 0.88 0.01 95 1021.9
20260902124528 61 79 0.0 0.0 0.00 0.88 0.01 95 1021.8
20260902123038 61 74 0.0 0.0 0.00 0.88 0.01 96 1021.8
20260902121518 61 71 0.0 0.0 0.00 0.89 0.01 95 1022.1
20260902120023 61 71 0.0 0.0 0.00 0.89 0.01 95 1022.1
20260902114535 60 71 0.0 0.0 0.00 0.89 0.01 96 1022.3